• In Kazakhstan
  • List of Countries
  • For 7 days
  • Water Temperature
  • Satellite Maps
  • Weather Map
  • News
  • Weather Widgets
  • user-avatar
    Login

    Hourly Weather Graz

    Today, 16 June, Sunday

    Time Temperature Precipitation Wind Pressure Humidity
    00:00 +22°C° 0 mm 1 mps 723 mmHg 76%
    01:00 +21°C° 0 mm 1 mps 723 mmHg 77%
    02:00 +21°C° 0.1 mm 1 mps 723 mmHg 78%
    03:00 +20°C° 0.1 mm 1 mps 723 mmHg 79%
    04:00 +19°C° 0.1 mm 2 mps 722 mmHg 79%
    05:00 +21°C° 0.3 mm 1 mps 723 mmHg 80%
    06:00 +22°C° 0.3 mm 1 mps 723 mmHg 80%
    07:00 +23°C° 0.3 mm 1 mps 724 mmHg 81%
    08:00 +25°C° 0 mm 1 mps 724 mmHg 72%
    09:00 +27°C° 0 mm 1 mps 725 mmHg 63%
    10:00 +29°C° 0 mm 1 mps 725 mmHg 54%
    11:00 +30°C° 0.4 mm 1 mps 725 mmHg 55%
    12:00 +30°C° 0.4 mm 1 mps 725 mmHg 55%
    13:00 +30°C° 0.4 mm 1 mps 726 mmHg 56%
    14:00 +29°C° 1.3 mm 1 mps 725 mmHg 61%
    15:00 +28°C° 1.3 mm 1 mps 725 mmHg 66%
    16:00 +27°C° 1.3 mm 1 mps 724 mmHg 71%
    17:00 +25°C° 0.6 mm 1 mps 725 mmHg 74%
    18:00 +24°C° 0.6 mm 1 mps 725 mmHg 77%
    19:00 +22°C° 0.6 mm 1 mps 725 mmHg 80%
    20:00 +21°C° 0.1 mm 1 mps 726 mmHg 82%
    21:00 +19°C° 0.1 mm 2 mps 726 mmHg 84%
    22:00 +18°C° 0.1 mm 2 mps 726 mmHg 86%
    23:00 +18°C° 0 mm 2 mps 726 mmHg 87%

    Tomorrow, 17 June, Monday

    Time Temperature Precipitation Wind Pressure Humidity
    00:00 +17°C° 0 mm 2 mps 726 mmHg 88%
    01:00 +18°C° 0 mm 1 mps 726 mmHg 88%
    02:00 +16°C° 0 mm 2 mps 726 mmHg 88%
    03:00 +16°C° 0 mm 2 mps 726 mmHg 88%
    04:00 +16°C° 0 mm 2 mps 726 mmHg 88%
    05:00 +18°C° 0 mm 1 mps 726 mmHg 85%
    06:00 +20°C° 0 mm 1 mps 726 mmHg 82%
    07:00 +21°C° 0 mm 1 mps 727 mmHg 78%
    08:00 +23°C° 0 mm 1 mps 727 mmHg 69%
    09:00 +25°C° 0 mm 1 mps 727 mmHg 60%
    10:00 +27°C° 0 mm 1 mps 727 mmHg 50%
    11:00 +27°C° 0.1 mm 1 mps 727 mmHg 49%
    12:00 +28°C° 0.1 mm 2 mps 726 mmHg 48%
    13:00 +28°C° 0.1 mm 2 mps 726 mmHg 47%
    14:00 +27°C° 0.1 mm 2 mps 726 mmHg 50%
    15:00 +27°C° 0.1 mm 2 mps 725 mmHg 53%
    16:00 +26°C° 0.1 mm 2 mps 725 mmHg 57%
    17:00 +25°C° 0 mm 1 mps 725 mmHg 63%
    18:00 +24°C° 0 mm 1 mps 725 mmHg 70%
    19:00 +23°C° 0 mm 1 mps 725 mmHg 76%
    20:00 +22°C° 0 mm 1 mps 725 mmHg 79%
    21:00 +21°C° 0 mm 1 mps 725 mmHg 83%
    22:00 +17°C° 0 mm 0 mps 725 mmHg 86%
    23:00 +19°C° 0 mm 1 mps 725 mmHg 85%

    Day after tomorrow, 18 June, Tuesday

    Time Temperature Precipitation Wind Pressure Humidity
    00:00 +20°C° 0 mm 1 mps 725 mmHg 83%
    01:00 +20°C° 0 mm 1 mps 724 mmHg 82%
    02:00 +19°C° 0 mm 1 mps 724 mmHg 83%
    03:00 +17°C° 0 mm 0 mps 724 mmHg 83%
    04:00 +17°C° 0 mm 0 mps 724 mmHg 84%
    05:00 +18°C° 0 mm 0 mps 724 mmHg 81%
    06:00 +19°C° 0 mm 0 mps 724 mmHg 79%
    07:00 +20°C° 0 mm 0 mps 725 mmHg 77%
    08:00 +20°C° 0.2 mm 0 mps 725 mmHg 77%
    09:00 +22°C° 0.2 mm 1 mps 725 mmHg 77%
    10:00 +23°C° 0.2 mm 1 mps 724 mmHg 77%
    11:00 +23°C° 0.4 mm 1 mps 724 mmHg 76%
    12:00 +24°C° 0.4 mm 1 mps 724 mmHg 74%
    13:00 +25°C° 0.4 mm 1 mps 724 mmHg 72%
    14:00 +26°C° 0.5 mm 1 mps 724 mmHg 69%
    15:00 +26°C° 0.5 mm 1 mps 723 mmHg 66%
    16:00 +27°C° 0.5 mm 1 mps 723 mmHg 63%
    17:00 +26°C° 0.6 mm 1 mps 723 mmHg 70%
    18:00 +24°C° 0.6 mm 1 mps 723 mmHg 78%
    19:00 +23°C° 0.6 mm 1 mps 723 mmHg 85%
    20:00 +22°C° 1 mm 1 mps 723 mmHg 86%
    21:00 +19°C° 1 mm 0 mps 723 mmHg 88%
    22:00 +18°C° 1 mm 0 mps 723 mmHg 89%
    23:00 +18°C° 0.2 mm 0 mps 723 mmHg 89%

    19 June, Wednesday

    Time Temperature Precipitation Wind Pressure Humidity
    00:00 +20°C° 0.2 mm 1 mps 723 mmHg 90%
    01:00 +20°C° 0.2 mm 1 mps 723 mmHg 90%
    02:00 +19°C° 0 mm 1 mps 723 mmHg 90%
    03:00 +19°C° 0 mm 1 mps 722 mmHg 90%
    04:00 +19°C° 0 mm 1 mps 722 mmHg 90%
    05:00 +20°C° 0 mm 1 mps 723 mmHg 87%
    06:00 +19°C° 0 mm 0 mps 723 mmHg 83%
    07:00 +21°C° 0 mm 0 mps 723 mmHg 79%
    08:00 +23°C° 0.4 mm 0 mps 723 mmHg 74%
    09:00 +24°C° 0.4 mm 0 mps 723 mmHg 69%
    10:00 +28°C° 0.4 mm 1 mps 723 mmHg 63%
    11:00 +29°C° 0.6 mm 1 mps 723 mmHg 58%
    12:00 +30°C° 0.6 mm 1 mps 723 mmHg 54%
    13:00 +31°C° 0.6 mm 1 mps 722 mmHg 49%
    14:00 +31°C° 0.5 mm 1 mps 722 mmHg 49%
    15:00 +30°C° 0.5 mm 1 mps 722 mmHg 50%
    16:00 +30°C° 0.5 mm 1 mps 722 mmHg 50%
    17:00 +28°C° 0.6 mm 1 mps 722 mmHg 59%
    18:00 +26°C° 0.6 mm 1 mps 721 mmHg 67%
    19:00 +25°C° 0.6 mm 1 mps 721 mmHg 76%
    20:00 +23°C° 1.7 mm 1 mps 722 mmHg 80%
    21:00 +22°C° 1.7 mm 1 mps 722 mmHg 83%
    22:00 +19°C° 1.7 mm 2 mps 722 mmHg 87%
    23:00 +19°C° 0.1 mm 2 mps 722 mmHg 85%

    20 June, Thursday

    Time Temperature Precipitation Wind Pressure Humidity
    00:00 +18°C° 0.1 mm 2 mps 722 mmHg 84%
    01:00 +18°C° 0.1 mm 2 mps 721 mmHg 83%
    02:00 +17°C° 0 mm 2 mps 721 mmHg 82%
    03:00 +17°C° 0 mm 2 mps 721 mmHg 81%
    04:00 +17°C° 0 mm 2 mps 721 mmHg 81%
    05:00 +19°C° 0 mm 1 mps 722 mmHg 76%
    06:00 +21°C° 0 mm 1 mps 722 mmHg 72%
    07:00 +23°C° 0 mm 1 mps 723 mmHg 68%
    08:00 +25°C° 0 mm 1 mps 723 mmHg 59%
    09:00 +28°C° 0 mm 1 mps 723 mmHg 49%
    10:00 +29°C° 0 mm 0 mps 723 mmHg 40%
    11:00 +31°C° 0 mm 1 mps 723 mmHg 37%
    12:00 +32°C° 0 mm 1 mps 723 mmHg 34%
    13:00 +33°C° 0 mm 1 mps 723 mmHg 31%
    14:00 +33°C° 0 mm 1 mps 723 mmHg 32%
    15:00 +32°C° 0 mm 1 mps 723 mmHg 34%
    16:00 +32°C° 0 mm 2 mps 723 mmHg 35%
    17:00 +30°C° 0.1 mm 2 mps 723 mmHg 47%
    18:00 +27°C° 0.1 mm 2 mps 723 mmHg 59%
    19:00 +25°C° 0.1 mm 3 mps 722 mmHg 71%
    20:00 +24°C° 0.9 mm 2 mps 723 mmHg 77%
    21:00 +22°C° 0.9 mm 1 mps 723 mmHg 82%
    22:00 +19°C° 0.9 mm 0 mps 723 mmHg 88%
    23:00 +21°C° 0.1 mm 1 mps 723 mmHg 88%

    21 June, Friday

    Time Temperature Precipitation Wind Pressure Humidity
    00:00 +20°C° 0.1 mm 1 mps 723 mmHg 88%
    01:00 +20°C° 0.1 mm 1 mps 723 mmHg 87%
    02:00 +20°C° 0 mm 1 mps 723 mmHg 87%
    03:00 +20°C° 0 mm 1 mps 723 mmHg 87%
    04:00 +19°C° 0 mm 1 mps 723 mmHg 87%
    05:00 +21°C° 0 mm 1 mps 723 mmHg 84%
    06:00 +21°C° 0 mm 0 mps 723 mmHg 81%
    07:00 +22°C° 0 mm 0 mps 723 mmHg 78%
    08:00 +26°C° 0.1 mm 1 mps 723 mmHg 70%
    09:00 +27°C° 0.1 mm 1 mps 723 mmHg 63%
    10:00 +29°C° 0.1 mm 2 mps 723 mmHg 55%
    11:00 +30°C° 0 mm 2 mps 723 mmHg 50%
    12:00 +31°C° 0 mm 2 mps 723 mmHg 44%
    13:00 +32°C° 0 mm 2 mps 723 mmHg 38%
    14:00 +32°C° 0 mm 2 mps 723 mmHg 37%
    15:00 +32°C° 0 mm 2 mps 722 mmHg 36%
    16:00 +32°C° 0 mm 2 mps 722 mmHg 36%
    17:00 +30°C° 0 mm 2 mps 722 mmHg 45%
    18:00 +28°C° 0 mm 1 mps 722 mmHg 55%
    19:00 +26°C° 0 mm 1 mps 722 mmHg 64%
    20:00 +25°C° 0.2 mm 1 mps 722 mmHg 70%
    21:00 +23°C° 0.2 mm 1 mps 723 mmHg 76%
    22:00 +21°C° 0.2 mm 2 mps 723 mmHg 81%
    23:00 +20°C° 0 mm 2 mps 723 mmHg 83%
    Show more